COSMOS 2251 DEB, 35729

Orbit data source: Space-Track

COSMOS 2251 DEB, 35729 is space debris in LEO originally from a launch on Wed, 16 Jun 1993 UTC launched from the Plesetsk Missile And Space Complex (PKMTR). The debris from Iridium 33, an American commercial communications satellite, has been tracked extensively since its accidental collision with the defunct Russian satellite Cosmos 2251 in 2009. This event, occurring at high speed in low Earth orbit (LEO), generated thousands of pieces of space debris, significantly increasing the risk of further collisions. The Iridium 33 debris cloud has impacted space traffic management and orbital debris mitigation strategies, making it a subject of ongoing study in space situational awareness.

Not visible in the next 10 days
Identifier
35729, 1993-036ARA
Orbit
LEO
Country
Flag of CISCIS
Related business
Manufacturer
Unknown
Mission
Spacecraft
Bus & Motor
Unknown
Mass
Unknown
Launch date (UTC)
1993-06-16 (32 years ago)
Launch vehicle
Unknown
Launch site
Plesetsk Missile And Space Complex (PKMTR)
Object type
Payload
Rocket body
Debris
Shape & HBR
Unknown shape, 0.1 m
Radar Cross Section
Small (<0.1 m²)

Expand to show TLE details & history
Last TLE update: 1 month ago

TLE from 1 month ago
0 COSMOS 2251 DEB
1 35729U 93036ARA 25258.59724355  .00317320  00000-0  60977-2 0  9996
2 35729  73.9982 342.9577 0004714   0.0088   0.1122 15.46666198869051
Epoch: 2025-09-15T14:20Z
TLE epoch observation values (Epoch: 2025-09-15T14:20:01.842Z)
Latitude
-0.00006°
Longitude
133.15039°
Altitude
426.02 km
Speed
7.658 km/s
True Right ascension
22h 51m 49s
True Declination
0° 00' 00"
Sunlit
Object was in full shadow at epoch
Visualization orbit readout
Latitude
Unknown
Longitude
Unknown
Altitude
Unknown
Speed
Unknown
Apparent Right ascension
Unknown
Apparent Declination
Unknown
Sunlit
N/A
Visualization observer readout
Local Sidereal Time
11:14:47
Azimuth
Unknown
Elevation
Unknown
Doppler factor
Unknown
Orbital elements
Apogee altitude
427.2 km
Perigee altitude
420.787 km
Semi-major axis
6,802.13 km
Eccentricity
0.00047
Inclination
73.9982°
RAAN
342.9577°
Arg. of periapsis
0.0088°
True anomaly
0.11231°
Mean anomaly
0.1122°
Eccentric anomaly
0.11225°
Mean motion
3.8688 °/min
Orbital period
93.05 mins
BSTAR
0.0060977
Loading maneuver chart data...
Computing Atmospheric mass density...

Documentation

Showing up to 5 results
|